SCOUT X-4 DEB, 2011

Orbit data source: Space-Track

SCOUT X-4 DEB, 2011 is space debris in LEO originally from a launch on Thu, 29 Apr 1965 UTC launched from the Wallops Island (WLPIS). Debris objects in space refer to the collection of defunct objects orbiting the Earth. Examples of debris include non-operational satellites, rocket bodies, and fragments generated from explosions, collisions, or faulty payload assembly.

Loading next visibility...
Identifier
2011, 1965-032D
Orbit
LEO
Country
Flag of USUS
Related business
Manufacturer
Unknown
Mission
Spacecraft
Bus & Motor
Unknown
Mass
Unknown
Launch date (UTC)
1965-04-29 (60 years ago)
Launch vehicle
Unknown
Launch site
Wallops Island (WLPIS)
Object type
Payload
Rocket body
Debris
Shape & HBR
Unknown
Radar Cross Section
Small (<0.1 m²)

Expand to show TLE details & history
Last TLE update: 5 days ago

TLE from 5 days ago
0 SCOUT X-4 DEB
1 02011U 65032D   25256.25240624  .00000748  00000-0  12783-2 0  9997
2 02011  41.1995 229.9544 0233454 288.5021  97.2409 13.40576396940151
Epoch: 2025-09-13T06:03Z
TLE epoch observation values (Epoch: 2025-09-13T06:03:27.899Z)
Latitude
18.30064°
Longitude
168.67789°
Altitude
1,132.233 km
Speed
7.277 km/s
True Right ascension
16h 48m 07s
True Declination
18° 12' 13"
Sunlit
Object was in daylight at epoch
Visualization orbit readout
Latitude
Unknown
Longitude
Unknown
Altitude
Unknown
Speed
Unknown
Apparent Right ascension
Unknown
Apparent Declination
Unknown
Sunlit
N/A
Visualization observer readout
Local Sidereal Time
07:12:34
Azimuth
Unknown
Elevation
Unknown
Doppler factor
Unknown
Orbital elements
Apogee altitude
1,283.989 km
Perigee altitude
934.399 km
Semi-major axis
7,487.331 km
Eccentricity
0.02335
Inclination
41.1995°
RAAN
229.9544°
Arg. of periapsis
288.5021°
True anomaly
99.88409°
Mean anomaly
97.2409°
Eccentric anomaly
98.56358°
Mean motion
3.35006 °/min
Orbital period
107.46 mins
BSTAR
0.0012783
Loading maneuver chart data...
Computing Atmospheric mass density...
Loading historical data...
Loading historical data...
Loading historical data...
Loading historical data...
Loading historical data...
Loading historical data...
Loading historical data...
Other satellites on launch #32 in the year 1965 (1965-04-29 UTC)

Documentation

Showing up to 5 results
|